Wind_Speed
15 16 16 17 16 15 15 15 15 15 15 15 15 15 15 15 15 15 14 14 13 13 12 13 12 12 11 10 10 10 9 9 9 9 9 9 9 9 10 9 10 11 10
15 16 17 16 15 14 15 16 16 16 16 16 16 16 15 15 15 15 14 13 13 13 12 13 12 11 11 11 11 11 10 9 9 9 10 10 9 9 10 10 10 11 11
15 16 16 16 15 15 15 15 15 15 15 15 15 15 15 14 15 14 13 12 12 12 12 12 12 12 12 12 12 11 11 11 10 10 10 10 10 10 10 11 10 10 11
14 15 15 15 15 14 15 15 14 15 15 15 14 14 14 14 13 13 12 12 11 11 12 12 12 12 12 12 11 11 11 11 10 11 11 11 11 11 11 11 11 11 11
13 14 15 15 14 13 13 13 14 14 13 13 14 13 13 13 13 13 12 12 12 11 11 11 12 12 11 11 11 11 11 11 11 11 12 12 11 11 11 11 11 11 12
14 13 14 15 14 13 13 13 13 13 14 14 14 14 13 13 13 12 12 12 13 12 12 12 12 11 11 11 11 11 12 12 12 12 12 12 12 12 12 12 11 11 12
14 14 14 14 14 13 13 12 13 13 13 12 13 13 13 13 12 12 12 12 12 12 12 12 12 11 11 11 12 12 12 12 12 12 12 12 13 13 13 13 13 13 13
14 14 15 15 14 13 13 13 12 12 12 12 12 12 12 12 12 13 12 12 12 12 13 12 12 11 11 12 12 12 13 13 13 13 13 13 13 14 14 14 14 14 14
15 15 15 15 15 15 15 14 14 14 14 13 13 13 13 14 13 13 13 13 13 13 13 13 12 12 12 12 12 13 13 14 14 14 14 14 14 14 14 15 15 14 13
18 17 16 16 16 16 16 16 16 15 15 15 15 14 14 14 14 14 14 14 14 14 14 14 14 13 13 13 14 14 14 14 14 13 14 14 14 14 15 15 15 14 14
19 18 17 17 17 17 17 18 18 17 17 17 16 16 16 16 16 15 14 14 15 15 15 14 14 14 14 14 14 14 15 14 14 14 14 14 14 14 14 15 15 15 15
19 19 19 18 18 17 17 18 18 18 18 18 17 17 18 18 17 17 17 16 16 16 16 15 15 15 15 15 15 15 15 14 14 14 14 14 14 14 15 15 15 15 15
20 21 21 20 19 19 19 18 18 18 18 19 18 18 18 18 18 18 17 17 17 17 17 17 16 16 16 15 15 15 15 15 15 14 14 14 13 14 15 15 15 15 16
22 21 22 21 20 19 20 19 19 19 19 19 19 19 19 19 18 18 18 18 17 17 18 18 18 17 17 16 16 16 16 15 15 15 14 14 14 15 15 16 16 16 16
23 23 23 23 22 21 20 20 20 20 20 19 20 19 19 20 19 19 19 19 19 18 18 19 19 18 18 17 16 16 16 16 16 15 15 15 15 16 15 16 16 16 16
23 24 24 23 22 22 21 21 20 20 21 21 20 20 19 20 20 20 20 20 20 20 20 20 20 20 19 18 18 17 17 17 16 16 16 16 17 17 17 17 17 17 17
25 25 24 24 23 22 21 21 21 20 21 21 21 21 21 21 21 21 22 21 21 21 22 22 21 21 21 20 19 19 19 18 18 17 17 17 17 17 17 18 18 18 18
27 25 25 25 24 23 23 22 22 22 22 22 21 21 22 22 22 23 23 22 22 22 22 22 22 22 21 21 21 21 20 20 19 18 18 18 18 18 18 18 18 18 19
27 26 25 24 24 24 23 23 23 23 23 23 23 23 23 23 23 23 23 23 22 23 24 23 23 23 23 22 22 22 22 21 21 21 20 20 20 19 20 19 19 19 19
27 26 25 24 24 24 24 24 24 24 24 24 23 24 24 25 24 24 24 24 23 23 23 24 23 23 23 23 23 23 22 22 22 22 22 22 22 21 21 21 20 20 20
28 27 26 25 25 25 25 25 25 24 24 24 25 25 25 26 26 26 26 25 24 24 24 23 23 23 24 24 23 23 23 22 22 22 23 23 22 22 22 22 21 22 21
29 28 28 27 26 25 25 25 25 25 25 25 26 26 26 26 27 28 27 27 26 25 24 24 23 24 24 24 24 24 24 23 23 23 23 23 22 22 23 23 23 23 23
29 29 29 28 27 26 25 25 26 26 26 26 27 27 27 27 28 28 27 26 26 26 26 24 24 24 24 24 25 24 23 23 24 24 24 23 23 23 23 24 24 23 23
29 29 29 29 28 27 26 26 25 26 25 26 27 27 28 27 27 28 27 26 27 27 27 26 26 26 26 25 25 24 24 24 25 25 26 26 25 25 25 24 24 23 23
30 29 30 29 29 28 28 27 26 26 27 26 26 27 27 28 28 28 28 27 27 27 27 27 27 27 27 26 26 25 26 25 25 26 27 27 26 26 25 25 24 24 23
30 30 30 30 30 30 29 28 27 27 26 26 25 26 26 27 28 28 27 26 26 27 27 27 27 27 27 27 26 26 27 26 26 26 27 27 27 26 26 26 25 25 25
Wind_Direction
285 285 286 282 281 281 280 278 275 274 270 272 273 272 271 267 266 267 267 265 268 270 268 267 262 262 260 262 260 261 264 269 268 270 274 276 283 289 285 279 278 278 276
289 289 289 287 286 286 284 279 274 274 272 271 271 268 267 268 266 264 263 266 266 265 266 265 263 263 261 260 264 262 262 267 272 274 273 274 281 289 287 280 278 275 275
293 291 290 290 288 287 284 280 276 273 272 272 268 266 266 268 269 265 261 261 260 261 264 265 261 261 264 265 265 265 263 266 271 276 276 278 282 289 288 281 277 275 274
295 294 292 293 291 289 284 279 278 276 272 271 268 265 265 266 265 261 259 258 258 261 263 263 263 261 262 264 267 266 267 270 274 277 278 278 282 285 287 283 278 279 279
294 295 294 292 291 288 285 282 278 276 276 274 269 265 264 265 263 260 258 259 260 260 259 262 263 259 260 263 266 267 272 271 276 280 280 279 284 283 284 283 281 279 278
292 293 291 292 291 290 288 287 281 277 275 273 270 266 264 264 265 262 261 259 257 258 257 260 262 257 259 261 265 268 272 276 279 280 281 283 286 286 287 286 283 280 278
290 288 289 291 291 290 289 286 283 278 276 275 272 267 265 265 264 262 263 262 262 258 257 258 262 258 258 258 262 267 274 278 281 281 282 284 286 289 290 290 287 282 280
289 288 287 289 290 292 291 287 281 276 273 273 273 269 267 266 265 265 264 263 263 258 256 260 262 259 257 259 264 268 275 278 282 282 283 287 288 289 291 290 288 284 280
290 287 288 286 288 290 288 287 284 278 273 270 268 267 267 267 267 267 264 261 261 259 258 259 261 259 259 260 263 269 276 280 280 280 282 285 288 288 290 290 285 282 280
287 287 287 285 285 287 284 284 284 278 273 270 266 265 265 267 269 269 264 262 262 262 264 262 260 261 260 260 262 270 274 276 278 280 282 282 285 287 289 290 285 282 279
285 285 286 286 287 285 285 282 280 277 272 269 265 263 264 265 267 270 265 264 264 264 265 261 260 262 263 262 263 268 273 275 278 282 283 284 286 288 288 289 286 283 282
285 285 283 283 283 284 287 284 280 276 272 269 265 264 263 262 264 266 266 265 263 262 263 260 260 261 264 265 265 266 267 272 276 279 280 282 286 286 288 288 287 284 283
283 284 283 282 280 281 284 283 281 278 275 270 268 265 263 261 263 264 263 264 264 263 262 260 260 262 264 264 266 266 267 271 276 277 279 280 283 285 288 288 288 286 284
280 281 281 281 281 283 282 280 276 277 276 271 268 263 262 261 260 261 262 265 266 265 264 260 260 263 265 265 265 264 268 271 274 276 278 278 281 285 288 288 288 287 284
277 279 280 280 280 282 282 280 277 275 274 272 268 264 259 257 257 258 260 262 263 263 262 260 262 264 265 264 264 264 267 271 273 275 275 277 281 284 286 289 290 288 284
278 279 280 279 279 279 279 279 278 276 274 271 269 264 261 257 256 257 258 259 261 261 261 260 262 262 263 263 263 265 267 269 272 274 275 277 282 284 285 288 290 288 286
276 279 279 278 276 275 275 275 277 277 275 271 268 265 263 260 258 258 258 260 261 261 260 259 260 261 262 262 263 264 265 267 270 273 276 279 282 284 285 288 289 288 286
275 277 277 275 272 271 270 271 272 273 273 271 267 266 264 263 262 260 259 259 260 260 261 260 260 261 261 263 263 263 263 266 268 271 275 278 281 282 283 286 287 286 286
276 277 275 273 270 269 270 271 270 271 271 269 265 263 263 263 263 263 263 262 261 261 261 260 261 261 262 263 263 263 264 265 267 270 273 277 280 280 282 283 284 285 286
275 275 275 273 269 268 268 269 270 270 269 267 265 263 262 263 263 262 263 263 261 262 261 259 261 262 261 261 261 262 263 265 267 270 272 275 277 277 280 282 282 283 285
272 273 273 272 271 270 269 268 270 270 267 267 265 263 262 262 263 263 263 264 263 262 261 259 260 260 260 259 260 261 263 265 267 269 270 272 275 276 278 280 280 281 282
270 271 271 272 272 271 269 268 268 269 267 265 266 266 264 263 263 262 262 262 263 263 261 260 260 260 259 259 261 261 262 263 265 267 269 271 274 277 277 278 278 278 281
270 270 269 269 270 270 270 269 268 268 267 265 265 265 265 264 263 262 260 259 260 261 260 259 260 259 259 261 261 261 263 264 264 266 269 272 274 276 277 279 278 278 279
268 268 268 268 267 268 269 269 268 268 269 266 265 265 263 262 262 260 258 259 260 260 257 257 258 258 259 260 261 263 266 267 267 269 272 274 276 276 277 278 277 278 278
268 268 269 267 265 266 267 267 268 269 270 270 267 265 264 261 261 260 258 258 258 258 258 258 260 259 259 259 260 262 265 267 269 270 272 274 275 276 276 275 274 274 275
267 267 268 266 265 265 265 266 268 268 268 268 268 265 264 263 262 259 258 257 257 257 258 259 259 259 260 259 260 262 264 266 268 270 271 272 271 272 273 272 272 272 273
Height
5849 5847 5846 5845 5846 5846 5845 5845 5845 5846 5846 5846 5847 5847 5847 5847 5847 5848 5848 5849 5850 5851 5852 5853 5853 5854 5855 5855 5856 5856 5857 5858 5858 5858 5859 5858 5859 5859 5858 5858 5858 5858 5858
5846 5844 5843 5843 5843 5842 5842 5843 5842 5842 5843 5843 5843 5843 5844 5844 5845 5845 5846 5846 5847 5848 5849 5850 5851 5852 5852 5853 5854 5854 5855 5855 5856 5856 5856 5856 5857 5856 5856 5856 5856 5856 5856
5843 5842 5840 5840 5840 5839 5839 5840 5839 5839 5840 5840 5840 5840 5841 5841 5842 5842 5842 5844 5845 5846 5846 5848 5848 5849 5850 5851 5851 5852 5852 5853 5853 5853 5854 5854 5854 5853 5853 5853 5853 5853 5853
5840 5838 5838 5837 5837 5836 5836 5836 5836 5836 5836 5837 5837 5837 5838 5838 5839 5839 5839 5841 5842 5843 5844 5845 5846 5846 5847 5848 5849 5850 5850 5850 5850 5850 5851 5851 5851 5851 5850 5850 5849 5849 5849
5837 5836 5835 5834 5834 5833 5833 5833 5833 5833 5833 5833 5834 5834 5834 5835 5836 5836 5837 5838 5839 5840 5841 5842 5843 5844 5845 5845 5846 5847 5847 5847 5848 5848 5848 5848 5848 5847 5847 5847 5846 5846 5846
5834 5833 5833 5832 5831 5830 5830 5830 5830 5830 5831 5831 5831 5831 5831 5832 5833 5833 5835 5835 5836 5837 5838 5839 5840 5841 5842 5843 5843 5844 5844 5844 5844 5845 5845 5845 5845 5844 5844 5843 5843 5843 5843
5831 5830 5830 5829 5828 5828 5828 5828 5828 5828 5828 5828 5828 5828 5829 5829 5830 5831 5832 5832 5833 5834 5835 5836 5837 5838 5839 5840 5840 5841 5841 5841 5841 5841 5841 5841 5841 5841 5841 5840 5840 5839 5839
5828 5827 5827 5827 5826 5826 5825 5825 5825 5825 5825 5825 5825 5826 5826 5827 5827 5828 5829 5829 5830 5831 5832 5833 5834 5835 5836 5836 5837 5838 5838 5838 5838 5838 5838 5838 5838 5837 5837 5837 5836 5836 5836
5825 5824 5824 5823 5823 5823 5822 5821 5821 5821 5822 5822 5822 5823 5823 5824 5824 5825 5825 5826 5828 5828 5829 5830 5831 5832 5832 5833 5834 5835 5835 5835 5835 5835 5835 5835 5834 5834 5833 5833 5833 5833 5832
5822 5821 5820 5820 5819 5819 5818 5818 5817 5817 5818 5818 5818 5819 5820 5821 5821 5822 5822 5823 5824 5825 5826 5827 5828 5828 5829 5830 5830 5831 5831 5831 5831 5831 5831 5831 5831 5830 5830 5829 5829 5829 5829
5817 5817 5817 5816 5815 5814 5814 5813 5813 5813 5813 5813 5814 5815 5816 5817 5818 5818 5819 5819 5820 5821 5822 5823 5824 5825 5826 5826 5827 5827 5827 5827 5827 5827 5827 5827 5827 5827 5826 5826 5825 5825 5824
5813 5813 5812 5812 5811 5810 5809 5808 5807 5807 5807 5808 5809 5810 5811 5813 5813 5814 5815 5816 5817 5818 5819 5820 5821 5821 5822 5822 5823 5823 5824 5824 5823 5823 5823 5823 5823 5823 5823 5822 5822 5821 5821
5809 5808 5807 5806 5806 5805 5804 5803 5803 5802 5802 5803 5804 5805 5806 5808 5809 5810 5811 5812 5812 5814 5814 5815 5817 5817 5818 5818 5819 5820 5820 5820 5820 5820 5820 5820 5820 5820 5819 5818 5818 5817 5817
5804 5803 5802 5801 5800 5800 5799 5799 5798 5798 5798 5798 5799 5800 5801 5802 5804 5805 5806 5807 5808 5809 5810 5811 5812 5813 5814 5814 5815 5815 5816 5816 5816 5816 5816 5816 5816 5816 5815 5814 5814 5813 5813
5797 5797 5797 5796 5795 5795 5794 5794 5794 5793 5793 5793 5794 5794 5795 5797 5798 5800 5801 5802 5803 5804 5805 5806 5807 5808 5809 5810 5811 5811 5812 5812 5812 5812 5812 5813 5812 5812 5811 5811 5810 5809 5808
5792 5792 5791 5790 5790 5789 5789 5789 5788 5788 5788 5788 5788 5789 5790 5791 5793 5794 5795 5797 5798 5799 5800 5801 5802 5803 5804 5805 5806 5806 5807 5807 5808 5808 5808 5808 5808 5808 5807 5806 5806 5805 5804
5786 5786 5785 5784 5784 5784 5784 5784 5783 5783 5783 5783 5783 5784 5784 5785 5786 5788 5789 5791 5792 5794 5795 5796 5797 5798 5799 5800 5801 5801 5802 5803 5803 5803 5804 5804 5804 5803 5803 5802 5801 5801 5800
5779 5779 5779 5778 5778 5778 5778 5778 5778 5778 5777 5777 5778 5779 5779 5779 5780 5782 5783 5785 5786 5787 5789 5790 5791 5792 5793 5794 5795 5796 5797 5797 5798 5798 5799 5799 5799 5798 5798 5798 5797 5796 5795
5773 5772 5771 5771 5771 5771 5771 5771 5772 5771 5771 5771 5772 5773 5773 5774 5775 5776 5777 5778 5779 5781 5782 5783 5785 5786 5787 5788 5789 5790 5791 5792 5793 5793 5793 5793 5793 5793 5793 5793 5792 5791 5790
5765 5765 5764 5764 5764 5764 5764 5765 5765 5765 5765 5765 5765 5766 5767 5768 5769 5770 5771 5772 5773 5774 5775 5777 5778 5780 5781 5782 5783 5784 5785 5786 5787 5787 5787 5787 5788 5788 5787 5787 5786 5786 5785
5758 5757 5757 5756 5757 5757 5757 5757 5758 5758 5758 5758 5759 5760 5760 5761 5762 5763 5764 5765 5766 5767 5769 5770 5772 5773 5774 5776 5777 5778 5779 5780 5780 5780 5781 5781 5781 5781 5781 5781 5780 5779 5778
5750 5750 5750 5750 5750 5750 5750 5750 5750 5750 5750 5751 5751 5752 5753 5754 5755 5756 5757 5758 5759 5760 5762 5763 5765 5766 5768 5769 5770 5771 5772 5773 5773 5774 5774 5775 5775 5775 5774 5774 5774 5773 5772
5742 5742 5742 5742 5742 5742 5743 5743 5743 5743 5743 5743 5744 5745 5745 5746 5747 5748 5749 5751 5752 5754 5755 5756 5758 5759 5761 5762 5763 5764 5765 5765 5766 5767 5767 5768 5768 5768 5767 5767 5766 5766 5765
5733 5734 5734 5734 5734 5734 5735 5735 5735 5735 5735 5735 5736 5737 5738 5739 5739 5740 5742 5743 5745 5747 5748 5749 5751 5752 5754 5755 5756 5757 5758 5759 5759 5760 5760 5760 5760 5760 5760 5759 5759 5759 5759
5725 5725 5725 5726 5726 5727 5727 5727 5728 5728 5727 5728 5728 5729 5730 5730 5731 5732 5734 5736 5738 5739 5741 5742 5744 5745 5747 5748 5749 5750 5751 5751 5752 5752 5752 5752 5753 5753 5752 5752 5752 5752 5752
5716 5716 5716 5717 5718 5718 5719 5719 5720 5720 5720 5720 5721 5721 5722 5723 5723 5725 5726 5728 5730 5731 5733 5734 5736 5737 5739 5740 5741 5742 5743 5743 5744 5745 5745 5744 5745 5745 5745 5745 5745 5745 5745